Home > Weather > Wittenberg > Past weeks

Flag for Germany Weather for the Past 2 Weeks in Wittenberg, Saxony-Anhalt, Germany

Now
39 °F

Passing clouds.


Feels Like: 33 °F
Forecast: 38 / 44 °F
Wind: 9 mph from Southwest

Location: Holzdorf

Current Time: Feb 10, 2016 at 8:06:29 PM

Latest Report: Feb 10, 2016 at 7:20 PM


Visibility: N/A

Pressure: 29.39 "Hg

Humidity: 81%

Dew point: 34 °F

Location of WittenbergLocation

Historic Weather in Wittenberg — Graph

°F

Wittenberg Temperature Yesterday

Maximum temperature yesterday: 52 °F (at 10:20 PM)
Minimum temperature yesterday: 45 °F (at 12:20 AM)
Average temperature yesterday: 47 °F

High & Low Weather Summary for the Past Weeks

 TemperatureHumidityPressure
High54 °F (Jan 27, 11:20 AM)100% (Feb 1, 1:20 AM)30.30 "Hg (Feb 1, 1:20 AM)
Low32 °F (Jan 29, 1:20 AM)53% (Jan 28, 2:20 PM)29.00 "Hg (Feb 9, 9:20 PM)
Average44 °F75%29.85 "Hg
* Reported Jan 26 6:20 PM — Feb 10 6:20 PM, Wittenberg, Weather by CustomWeather, © 2016

Note: Actual official high and low records may vary slightly from our data, if they occured in-between our weather recording intervals... More about our weather records

Advertising

Wittenberg Weather History for the Previous 24 Hours

 ConditionsComfort  
Time TempWeatherWind HumidityBarometerVisibility
6:20 PM
Wed, Feb 10
39 °FPassing clouds.9 mph81%29.36 "HgN/A
6:00 PM39 °FPartly cloudy.9 mph81%29.36 "HgN/A
5:20 PM39 °FPartly cloudy.5 mph81%29.36 "HgN/A
4:20 PM43 °FScattered showers. Broken clouds.13 mph66%29.33 "HgN/A
3:20 PM45 °FBroken clouds.15 mph57%29.30 "HgN/A
2:20 PM45 °FBroken clouds.16 mph57%29.30 "HgN/A
1:20 PM45 °FScattered clouds.21 mph57%29.30 "HgN/A
12:20 PM45 °FScattered clouds.18 mph57%29.33 "HgN/A
11:20 AM43 °FPartly sunny.13 mph61%29.33 "HgN/A
10:20 AM41 °FPartly sunny.15 mph66%29.33 "HgN/A
9:20 AM39 °FPartly sunny.13 mph70%29.33 "HgN/A
8:20 AM39 °FPartly sunny.14 mph70%29.30 "HgN/A
7:20 AM39 °FPassing clouds.13 mph70%29.27 "HgN/A
6:20 AM39 °FPassing clouds.10 mph70%29.27 "HgN/A
5:20 AM39 °FPassing clouds.12 mph70%29.24 "HgN/A
4:20 AM39 °FPartly cloudy.13 mph70%29.24 "HgN/A
3:20 AM41 °FPassing clouds.16 mph70%29.24 "HgN/A
2:20 AM43 °FPassing clouds.21 mph66%29.21 "HgN/A
1:20 AM43 °FPartly cloudy.21 mph66%29.15 "HgN/A
12:20 AM45 °FPartly cloudy.29 mph66%29.09 "HgN/A
11:55 PM
Tue, Feb 9
48 °FPartly cloudy.32 mph66%29.06 "HgN/A
11:20 PM50 °FPassing clouds.21 mph62%29.00 "HgN/A
10:20 PM52 °FPassing clouds.20 mph62%29.00 "HgN/A
9:20 PM48 °FPassing clouds.13 mph82%29.00 "HgN/A
8:20 PM48 °FLight rain. Passing clouds.13 mph76%29.06 "HgN/A
Weather by CustomWeather, © 2016

See weather overviewHow to use our weather pages